Location: �perlecques
(50.8057°N, 2.1521°E)
Time: 08:24:15
(UTC+00:00)

Explorer 7 - Visible Passes

Search period start: 31 July 2021 00:00
Search period end: 10 August 2021 00:00
Orbit: 484 x 676 km, 50.3° (Epoch: 30 July)

Date Brightness Start Highest point End Pass type
(mag) Time Alt. Az. Time Alt. Az. Time Alt. Az.
02 Aug 9.1 03:42:48 10° SSE 03:44:36 13° SE 03:46:24 10° ESE visible
06 Aug 8.7 02:20:23 13° SSE 02:21:21 14° SE 02:23:22 10° ESE visible
07 Aug 8.3 02:24:26 18° SSE 02:25:25 20° SE 02:28:15 10° E visible
08 Aug 7.8 02:28:27 24° S 02:29:32 28° SSE 02:32:50 10° E visible
09 Aug 7.3 02:32:27 29° SSW 02:33:41 38° SSE 02:37:15 10° E visible
